Location: Kouchibouguac National Park
(46.8081°N, 64.9088°W)
Time: 06:59:35
(UTC-03:00)

Amateur Radio Satellites - All Passes

Search period start: 22 May 2015 06:29
Search period end: 23 May 2015 06:29
Location: Kouchibouguac National Park, 46.8081°N, 64.9088°W

Satellite Date Start Highest point End Downlink Frequencies (MHz)
Time Altitude Azimuth
AUBIESAT-1 22 May 06:41:18 06:45:10 34° 64° (ENE) 06:48:48 437.475
YUBILEINY 22 May 06:47:43 06:51:26 14° 73° (ENE) 06:55:44 435.215
CUBESAT XI-V 22 May 06:50:15 06:54:51 88° 259° (W) 06:59:30 437.345
SO-50 22 May 06:53:49 06:58:08 32° 321° (NW) 07:02:32 436.795
HORYU 2 22 May 06:58:05 06:59:53 12° 302° (WNW) 07:01:29 437.375
PHONESAT 2.4 22 May 07:13:18 07:16:06 23° 168° (SSE) 07:18:56 2401.200-2431.200
JAS-2 22 May 07:18:34 07:21:20 14° 305° (NW) 07:23:52 435.910
PRISM 22 May 07:25:47 07:29:52 70° 257° (WSW) 07:33:58 437.425
STRAND 1 22 May 07:31:06 07:36:12 80° 257° (WSW) 07:41:21 437.568
Cosmos 2491 22 May 07:41:23 07:50:17 78° 79° (E) 07:59:07 435.465 / 435.565
CUTE-I 22 May 07:46:08 07:51:31 73° 102° (ESE) 07:56:53 437.470
VERMONT LUNAR 22 May 07:50:59 07:53:40 25° 187° (S) 07:56:22 437.305
ISS 22 May 07:54:02 07:57:18 72° 209° (SSW) 08:00:34 145.825
M-CUBED/EXP-1 PRIME 22 May 08:02:27 08:06:23 31° 258° (WSW) 08:10:01 437.505
Cubesat XI-IV 22 May 08:05:03 08:10:25 79° 288° (WNW) 08:15:48 437.490
AUBIESAT-1 22 May 08:16:20 08:19:58 26° 259° (W) 08:23:21 437.475
AO-7 22 May 08:19:03 08:24:38 20° 316° (NW) 08:29:57 29.400- 29.500
RS-15 22 May 08:21:34 08:24:15 12° 95° (E) 08:27:59 29.354- 29.394
CUBESAT XI-V 22 May 08:32:21 08:33:07 10° 276° (W) 08:33:36 437.345
BRITE-PL 22 May 08:37:30 08:42:22 29° 91° (E) 08:47:13 437.365/2234.400
YUBILEINY 22 May 08:38:05 08:46:44 67° 94° (E) 08:55:24 435.215
SO-50 22 May 08:38:16 08:40:13 12° 344° (NNW) 08:42:06 436.795
AIST 1 22 May 08:48:53 08:53:14 63° 78° (ENE) 08:57:34
PHONESAT 2.4 22 May 08:50:43 08:53:44 28° 184° (S) 08:56:45 2401.200-2431.200
DOVE 4 22 May 08:58:52 09:02:25 19° 87° (E) 09:06:03 437.250
HO-68 22 May 09:02:41 09:08:22 25° 91° (E) 09:14:11 435.675
GOMX 1 22 May 09:08:17 09:13:14 34° 93° (E) 09:18:03 467.674
SEEDS 22 May 09:09:19 09:11:38 15° 88° (E) 09:14:05 437.485
PCSat 22 May 09:11:24 09:14:01 14° 24° (NNE) 09:16:45 145.827
STRAND 1 22 May 09:15:07 09:16:23 11° 276° (W) 09:17:19 437.568
CINEMA 3 22 May 09:18:22 09:20:32 13° 84° (E) 09:22:54 145.822/145.860
CUTE-I 22 May 09:27:18 09:31:06 19° 301° (WNW) 09:34:44 437.470
VERMONT LUNAR 22 May 09:28:49 09:30:17 12° 202° (SSW) 09:31:43 437.305
COMPASS 1 22 May 09:30:55 09:33:57 20° 91° (E) 09:37:05 437.405
ISS 22 May 09:31:46 09:33:15 12° 226° (SW) 09:34:39 145.825
Cosmos 2504 22 May 09:35:10 09:39:38 16° 78° (ENE) 09:44:23 435.465 / 435.565
Cosmos 2491 22 May 09:39:23 09:46:21 26° 280° (W) 09:52:58 435.465 / 435.565
TIGRISAT 22 May 09:40:21 09:43:12 16° 61° (ENE) 09:46:10 435.000
Cubesat XI-IV 22 May 09:46:59 09:49:47 14° 305° (NW) 09:52:22 437.490
AAUSAT CUBESAT 2 22 May 09:47:31 09:50:58 25° 93° (E) 09:54:27 437.432
UNISAT 6 22 May 09:57:22 10:01:02 24° 65° (ENE) 10:04:46 437.425
Oscar 11 22 May 10:00:34 10:03:25 18° 90° (E) 10:06:24 145.826/435.025
NANOSAT C BR1 22 May 10:05:12 10:06:59 13° 60° (ENE) 10:08:57 145.865
CANX-2 22 May 10:07:57 10:12:12 80° 102° (ESE) 10:16:24 2200.000
QB50P2 22 May 10:08:38 10:10:50 14° 61° (ENE) 10:13:12 145.880/145.840
UWE-3 22 May 10:08:39 10:11:23 16° 88° (E) 10:14:14 435.000/436.395/437.385
CUTE 1.7 + AOD 2 22 May 10:12:22 10:16:37 81° 102° (ESE) 10:20:49 437.475
BRITE-PL 22 May 10:15:36 10:21:06 49° 290° (WNW) 10:26:28 437.365/2234.400
POPSAT HIP 1 22 May 10:21:32 10:24:25 18° 63° (ENE) 10:27:26 437.405
SO-50 22 May 10:22:18 10:22:58 10° 9° (N) 10:23:40 436.795
RS-15 22 May 10:23:48 10:34:14 57° 116° (ESE) 10:45:04 29.354- 29.394
DUCHIFAT 1 22 May 10:27:48 10:30:52 20° 64° (ENE) 10:34:04 145.980
AIST 1 22 May 10:28:09 10:30:25 14° 275° (W) 10:32:29
PHONESAT 2.4 22 May 10:29:04 10:31:17 16° 201° (SSW) 10:33:27 2401.200-2431.200
FUNcube-1 22 May 10:33:00 10:36:23 22° 91° (E) 10:39:47 145.935
DOVE 4 22 May 10:35:29 10:40:44 65° 287° (WNW) 10:45:44 437.250
YUBILEINY 22 May 10:36:39 10:44:21 32° 297° (WNW) 10:51:52 435.215
ANTELSAT 22 May 10:39:25 10:44:01 55° 72° (ENE) 10:48:37 437.575/2403.000
SEEDS 22 May 10:43:44 10:47:52 56° 287° (WNW) 10:51:56 437.485
CUBEBUG 2 22 May 10:45:04 10:49:29 45° 98° (E) 10:53:44 437.445
GOMX 1 22 May 10:46:18 10:51:23 39° 292° (WNW) 10:56:17 467.674
HO-68 22 May 10:49:39 10:56:48 70° 291° (WNW) 11:03:52 435.675
DELFI C3 22 May 10:50:59 10:54:48 41° 98° (E) 10:58:37 145.870
CINEMA 3 22 May 10:53:34 10:58:30 80° 284° (WNW) 11:03:10 145.822/145.860
PCSat 22 May 10:53:45 10:58:56 44° 48° (NE) 11:04:07 145.827
POLYITAN 1 22 May 11:03:42 11:07:48 46° 70° (ENE) 11:11:58 437.675
QB50P1 22 May 11:04:47 11:08:52 46° 71° (ENE) 11:13:01 145.935-145.965
COMPASS 1 22 May 11:05:55 11:09:50 40° 289° (WNW) 11:13:43 437.405
ZACube-1 22 May 11:10:34 11:14:55 53° 99° (E) 11:19:09 437.345
BUGSAT 1 22 May 11:14:32 11:18:23 39° 70° (ENE) 11:22:20 437.445
TIGRISAT 22 May 11:14:45 11:19:28 71° 259° (W) 11:24:09 435.000
VELOX 1 22 May 11:18:25 11:21:19 17° 90° (E) 11:24:22 145.980
AAUSAT CUBESAT 2 22 May 11:22:55 11:26:38 31° 291° (WNW) 11:30:16 437.432
Cosmos 2504 22 May 11:23:34 11:32:00 78° 96° (E) 11:39:54 435.465 / 435.565
UKube-1 22 May 11:23:58 11:27:56 33° 97° (E) 11:31:53 .
DX 1 22 May 11:24:35 11:28:40 36° 97° (E) 11:32:45 434.975-435.025
UNISAT 6 22 May 11:33:02 11:37:34 46° 262° (W) 11:42:06 437.425
CUBEBUG 1 22 May 11:33:03 11:34:58 13° 87° (E) 11:37:07 437.445
Oscar 11 22 May 11:35:45 11:39:57 50° 288° (WNW) 11:44:06 145.826/435.025
NANOSAT C BR1 22 May 11:37:59 11:42:15 81° 256° (WSW) 11:46:35 145.865
QB50P2 22 May 11:41:57 11:46:13 72° 257° (WSW) 11:50:34 145.880/145.840
UWE-3 22 May 11:43:57 11:48:23 57° 288° (WNW) 11:52:39 435.000/436.395/437.385
CANX-2 22 May 11:45:45 11:47:34 12° 300° (WNW) 11:49:14 2200.000
AISAT 22 May 11:47:14 11:51:19 34° 96° (E) 11:55:26 437.250
HUMSAT D 22 May 11:48:54 11:53:06 64° 101° (E) 11:57:13 437.325/437.525
CUTE 1.7 + AOD 2 22 May 11:50:11 11:51:58 12° 300° (WNW) 11:53:36 437.475
POPSAT HIP 1 22 May 11:55:45 11:59:57 53° 260° (W) 12:04:11 437.405
SO-50 22 May 12:01:30 12:05:21 22° 32° (NNE) 12:09:15 436.795
DUCHIFAT 1 22 May 12:02:18 12:06:25 46° 262° (W) 12:10:34 145.980
FUNcube-1 22 May 12:08:46 12:12:56 40° 290° (WNW) 12:16:57 145.935
DOVE 4 22 May 12:15:48 12:17:31 11° 305° (NW) 12:18:58 437.250
ANTELSAT 22 May 12:17:47 12:21:10 19° 270° (W) 12:24:23 437.575/2403.000
CUBEBUG 2 22 May 12:22:19 12:25:53 22° 296° (WNW) 12:29:17 437.445
50 SAT 22 May 12:24:45 12:28:42 88° 285° (WNW) 12:32:35 437.505
DELFI C3 22 May 12:26:43 12:29:40 20° 295° (WNW) 12:32:32 145.870
SPROUT 22 May 12:32:14 12:34:43 15° 88° (E) 12:37:23 437.525
CINEMA 3 22 May 12:32:50 12:34:54 12° 303° (WNW) 12:36:44 145.822/145.860
ESTCUBE 1 22 May 12:35:30 12:39:59 61° 101° (E) 12:44:29 437.505/2401.250
RS-15 22 May 12:36:11 12:46:53 54° 322° (NW) 12:57:56 29.354- 29.394
Oscar 19 22 May 12:37:14 12:41:06 22° 61° (ENE) 12:45:05 437.125/150
PCSat 22 May 12:37:23 12:42:17 34° 248° (WSW) 12:47:05 145.827
HO-68 22 May 12:38:55 12:43:26 18° 311° (NW) 12:47:41 435.675
POLYITAN 1 22 May 12:40:49 12:43:59 19° 269° (W) 12:47:04 437.675
QB50P1 22 May 12:41:54 12:45:02 19° 269° (W) 12:48:02 145.935-145.965
ZACube-1 22 May 12:47:48 12:50:55 19° 297° (WNW) 12:53:51 437.345
BUGSAT 1 22 May 12:50:52 12:54:02 21° 268° (W) 12:57:11 437.445
VELOX 1 22 May 12:53:52 12:58:17 55° 288° (WNW) 13:02:39 145.980
UKube-1 22 May 13:00:15 13:03:58 27° 294° (WNW) 13:07:38 .
DX 1 22 May 13:01:06 13:04:47 26° 295° (WNW) 13:08:22 434.975-435.025
CUSAT 1 22 May 13:01:17 13:06:34 24° 81° (E) 13:12:42 437.405
CUBEBUG 1 22 May 13:07:28 13:11:56 73° 286° (WNW) 13:16:21 437.445
GONETS M04 22 May 13:08:05 13:14:50 27° 81° (E) 13:21:53
TISAT 1 22 May 13:15:34 13:19:22 30° 95° (E) 13:23:11 437.305
Cosmos 2504 22 May 13:19:30 13:26:17 26° 298° (WNW) 13:32:32 435.465 / 435.565
AISAT 22 May 13:23:56 13:27:50 29° 294° (WNW) 13:31:40 437.250
HUMSAT D 22 May 13:25:56 13:28:24 15° 298° (WNW) 13:30:42 437.325/437.525
DANDE 22 May 13:35:42 13:41:30 31° 84° (E) 13:48:28 436.750
SO-50 22 May 13:41:34 13:46:35 88° 232° (SW) 13:51:30 436.795
AO-7 22 May 13:46:45 13:51:17 17° 41° (NE) 13:56:06 29.400- 29.500
JAS-2 22 May 14:06:03 14:07:57 12° 53° (NE) 14:10:06 435.910
SPROUT 22 May 14:06:57 14:11:15 59° 288° (WNW) 14:15:31 437.525
ESTCUBE 1 22 May 14:13:25 14:16:27 18° 298° (WNW) 14:19:22 437.505/2401.250
Oscar 19 22 May 14:14:56 14:20:04 60° 259° (WSW) 14:25:15 437.125/150
ITAMSAT 1 22 May 14:17:26 14:22:23 49° 69° (ENE) 14:27:24 435.822/435.867
Cosmos 2499 22 May 14:21:44 14:24:00 12° 75° (ENE) 14:26:46 435.465 / 435.565
Gurwin Techsat 1B 22 May 14:24:19 14:29:27 52° 70° (ENE) 14:34:38 435.225
CUSAT 1 22 May 14:41:14 14:48:17 83° 281° (W) 14:56:37 437.405
HORYU 2 22 May 14:45:55 14:48:34 16° 61° (ENE) 14:51:22 437.375
CUBEBUG 1 22 May 14:47:13 14:47:34 10° 303° (WNW) 14:47:40 437.445
ITUPSAT 1 22 May 14:48:50 14:53:26 46° 99° (E) 14:58:03 437.325
TISAT 1 22 May 14:51:22 14:55:06 29° 293° (WNW) 14:58:45 437.305
RS-15 22 May 14:52:47 15:02:26 32° 354° (N) 15:12:26 29.354- 29.394
BEESAT 22 May 14:59:54 15:04:38 60° 102° (ESE) 15:09:21 436.000
GONETS M04 22 May 15:02:03 15:10:55 76° 282° (WNW) 15:19:49
SWISSCUBE 22 May 15:07:30 15:12:18 76° 103° (ESE) 15:17:06 437.505
DANDE 22 May 15:17:23 15:24:10 63° 287° (WNW) 15:32:27 436.750
SO-50 22 May 15:23:54 15:26:28 14° 251° (WSW) 15:28:49 436.795
AO-7 22 May 15:34:27 15:42:26 56° 63° (ENE) 15:50:32 29.400- 29.500
JAS-2 22 May 15:45:29 15:52:09 57° 71° (ENE) 15:58:05 435.910
ITAMSAT 1 22 May 15:57:59 16:02:12 24° 268° (W) 16:06:20 435.822/435.867
Gurwin Techsat 1B 22 May 16:05:30 16:09:47 24° 269° (W) 16:13:58 435.225
Cosmos 2499 22 May 16:07:49 16:15:53 63° 94° (E) 16:23:26 435.465 / 435.565
STARS 22 May 16:08:31 16:12:37 36° 97° (E) 16:16:44 437.465
HORYU 2 22 May 16:20:16 16:24:45 68° 258° (WSW) 16:29:15 437.375
CUSAT 1 22 May 16:26:44 16:32:30 22° 306° (NW) 16:38:31 437.405
ITUPSAT 1 22 May 16:27:14 16:31:06 24° 296° (WNW) 16:34:53 437.325
KKS-1 22 May 16:27:42 16:32:14 88° 100° (E) 16:36:43 437.445
BEESAT 22 May 16:38:40 16:42:06 19° 298° (WNW) 16:45:24 436.000
SWISSCUBE 22 May 16:46:42 16:49:38 16° 301° (WNW) 16:52:25 437.505
O/OREOS (USA 219) 22 May 17:01:20 17:05:29 38° 108° (ESE) 17:09:41 437.305
GONETS M04 22 May 17:03:29 17:09:39 19° 307° (NW) 17:15:27
DANDE 22 May 17:04:46 17:09:33 17° 312° (NW) 17:14:24 436.750
RS-15 22 May 17:08:08 17:18:41 41° 27° (NNE) 17:29:46 29.354- 29.394
MOZHAYETS 4 22 May 17:19:55 17:23:50 28° 94° (E) 17:27:49
AO-7 22 May 17:27:57 17:35:36 39° 264° (W) 17:43:12 29.400- 29.500
JAS-2 22 May 17:31:43 17:37:33 28° 267° (W) 17:42:44 435.910
CUTE-I 22 May 17:32:31 17:36:42 25° 62° (ENE) 17:41:01 437.470
STARS 22 May 17:45:13 17:48:57 26° 295° (WNW) 17:52:36 437.465
Cubesat XI-IV 22 May 17:50:53 17:55:36 35° 66° (ENE) 18:00:25 437.490
Cosmos 2499 22 May 18:02:28 18:09:35 31° 294° (WNW) 18:16:08 435.465 / 435.565
KKS-1 22 May 18:06:12 18:08:15 13° 301° (WNW) 18:10:08 437.445
O/OREOS (USA 219) 22 May 18:41:06 18:45:02 28° 307° (NW) 18:48:54 437.305
YUBILEINY 22 May 18:44:46 18:52:43 39° 67° (ENE) 19:00:44 435.215
CUBESAT XI-V 22 May 18:44:47 18:48:07 19° 90° (E) 18:51:34 437.345
Cosmos 2491 22 May 18:53:32 18:58:42 18° 76° (ENE) 19:04:20 435.465 / 435.565
MOZHAYETS 4 22 May 18:56:59 19:01:07 34° 292° (WNW) 19:05:13
BEESAT 2 22 May 19:04:43 19:06:15 12° 111° (ESE) 19:08:00 435.950
PRISM 22 May 19:06:47 19:08:39 13° 88° (E) 19:10:43 437.425
CUTE-I 22 May 19:11:19 19:16:30 53° 260° (W) 19:21:44 437.470
RS-15 22 May 19:21:02 19:32:38 88° 233° (SW) 19:44:44 29.354- 29.394
Cubesat XI-IV 22 May 19:30:48 19:35:42 37° 264° (W) 19:40:36 437.490
CANX-2 22 May 19:31:44 19:32:24 10° 59° (ENE) 19:33:16 2200.000
HO-68 22 May 19:34:48 19:40:37 28° 56° (ENE) 19:46:34 435.675
CUTE 1.7 + AOD 2 22 May 19:36:01 19:36:45 10° 59° (ENE) 19:37:39 437.475
STRAND 1 22 May 19:39:03 19:43:25 28° 94° (E) 19:47:50 437.568
BRITE-PL 22 May 19:50:56 19:55:32 39° 68° (ENE) 20:00:33 437.365/2234.400
AUBIESAT-1 22 May 19:55:23 19:56:31 12° 95° (E) 19:57:47 437.475
BEESAT 3 22 May 19:57:53 20:01:49 48° 121° (ESE) 20:05:49 437.485
AIST 2 22 May 19:59:48 20:02:00 14° 111° (ESE) 20:04:20 435.215
SEEDS 22 May 20:04:25 20:07:04 17° 63° (ENE) 20:09:48 437.485
DOVE 4 22 May 20:06:44 20:10:53 26° 64° (ENE) 20:15:15 437.250
GOMX 1 22 May 20:18:45 20:23:34 46° 69° (ENE) 20:28:42 467.674
CUBESAT XI-V 22 May 20:21:21 20:25:54 52° 288° (WNW) 20:30:27 437.345
CINEMA 3 22 May 20:22:12 20:25:38 20° 62° (ENE) 20:29:16 145.822/145.860
COMPASS 1 22 May 20:25:08 20:28:17 21° 65° (ENE) 20:31:30 437.405
BEESAT 2 22 May 20:39:40 20:43:48 82° 307° (NW) 20:47:59 435.950
PRISM 22 May 20:40:29 20:44:36 64° 287° (WNW) 20:48:42 437.425
AAUSAT CUBESAT 2 22 May 20:41:11 20:44:40 26° 67° (ENE) 20:48:11 437.432
YUBILEINY 22 May 20:41:31 20:49:56 54° 269° (W) 20:58:14 435.215
Cosmos 2491 22 May 20:45:31 20:54:17 80° 96° (E) 21:03:10 435.465 / 435.565
Oscar 11 22 May 20:58:13 21:01:26 21° 65° (ENE) 21:04:44 145.826/435.025
CANX-2 22 May 21:03:23 21:07:41 82° 73° (ENE) 21:11:58 2200.000
CUTE 1.7 + AOD 2 22 May 21:07:43 21:12:00 83° 77° (ENE) 21:16:18 437.475
UWE-3 22 May 21:08:14 21:11:44 22° 64° (ENE) 21:15:19 435.000/436.395/437.385
Cosmos 2504 22 May 21:13:14 21:19:34 31° 65° (ENE) 21:25:52 435.465 / 435.565
M-CUBED/EXP-1 PRIME 22 May 21:15:27 21:18:48 57° 293° (WNW) 21:22:02 437.505
STRAND 1 22 May 21:17:56 21:22:47 42° 292° (WNW) 21:27:36 437.568
HO-68 22 May 21:20:39 21:27:50 71° 256° (WSW) 21:35:03 435.675
AIST 1 22 May 21:21:42 21:25:26 31° 91° (E) 21:29:14
AUBIESAT-1 22 May 21:28:27 21:31:43 46° 294° (WNW) 21:34:52 437.475
BRITE-PL 22 May 21:29:43 21:34:10 31° 268° (W) 21:38:53 437.365/2234.400
FUNcube-1 22 May 21:31:14 21:35:04 27° 66° (ENE) 21:38:56 145.935
RS-15 22 May 21:34:37 21:43:50 27° 256° (WSW) 21:52:51 29.354- 29.394
AIST 2 22 May 21:35:48 21:40:04 75° 308° (NW) 21:44:23 435.215
BEESAT 3 22 May 21:36:34 21:40:02 25° 321° (NW) 21:43:29 437.485
SEEDS 22 May 21:38:18 21:42:29 56° 260° (W) 21:46:39 437.485
DELFI C3 22 May 21:41:04 21:44:48 38° 70° (ENE) 21:48:34 145.870
DOVE 4 22 May 21:43:27 21:48:21 49° 263° (W) 21:53:28 437.250
CUBEBUG 2 22 May 21:45:29 21:50:08 55° 72° (ENE) 21:54:49 437.445
CINEMA 3 22 May 21:57:26 22:02:22 66° 259° (W) 22:07:25 145.822/145.860
GOMX 1 22 May 21:57:37 22:01:56 27° 270° (W) 22:06:22 467.674
COMPASS 1 22 May 21:59:45 22:03:44 41° 262° (W) 22:07:43 437.405
ESTCUBE 1 22 May 22:05:05 22:06:07 11° 57° (ENE) 22:07:22 437.505/2401.250
ZACube-1 22 May 22:08:48 22:13:20 61° 73° (ENE) 22:17:53 437.345
AAUSAT CUBESAT 2 22 May 22:16:26 22:20:12 32° 265° (W) 22:23:56 437.432
VELOX 1 22 May 22:18:47 22:22:13 23° 64° (ENE) 22:25:45 145.980
BEESAT 2 22 May 22:19:52 22:22:33 16° 328° (NNW) 22:25:11 435.950
UKube-1 22 May 22:21:28 22:25:31 41° 69° (ENE) 22:29:38 .
DX 1 22 May 22:22:49 22:26:58 46° 70° (ENE) 22:31:11 434.975-435.025
CUBEBUG 1 22 May 22:32:00 22:34:41 17° 62° (ENE) 22:37:30 437.445
Oscar 11 22 May 22:33:11 22:37:22 45° 262° (W) 22:41:33 145.826/435.025
HUMSAT D 22 May 22:43:03 22:47:20 66° 74° (ENE) 22:51:39 437.325/437.525
CANX-2 22 May 22:43:16 22:44:16 11° 275° (W) 22:45:02 2200.000
UWE-3 22 May 22:43:22 22:47:56 51° 261° (W) 22:52:33 435.000/436.395/437.385
YUBILEINY 22 May 22:43:48 22:44:52 10° 290° (WNW) 22:45:15 435.215
Cosmos 2491 22 May 22:45:05 22:52:20 27° 300° (WNW) 22:59:25 435.465 / 435.565
CUTE 1.7 + AOD 2 22 May 22:47:41 22:48:36 10° 275° (W) 22:49:16 437.475
AISAT 22 May 22:47:41 22:51:53 43° 70° (ENE) 22:56:09 437.250
AIST 1 22 May 22:59:32 23:03:08 26° 290° (WNW) 23:06:43
TIGRISAT 22 May 23:04:40 23:07:51 19° 90° (E) 23:11:04 435.000
Cosmos 2504 22 May 23:06:20 23:13:25 55° 268° (W) 23:20:20 435.465 / 435.565
FUNcube-1 22 May 23:06:57 23:11:15 38° 264° (W) 23:15:32 145.935
50 SAT 22 May 23:11:50 23:15:52 79° 76° (ENE) 23:19:53 437.505
HO-68 22 May 23:13:31 23:17:04 13° 277° (W) 23:20:08 435.675
GONETS M04 22 May 23:13:36 23:18:27 16° 50° (NE) 23:23:43
AIST 2 22 May 23:16:39 23:19:24 16° 329° (NNW) 23:22:04 435.215
DELFI C3 22 May 23:17:00 23:20:05 20° 268° (W) 23:23:05 145.870
NANOSAT C BR1 22 May 23:21:37 23:23:43 14° 88° (E) 23:26:00 145.865
UNISAT 6 22 May 23:22:27 23:26:21 30° 94° (E) 23:30:12 437.425
CUBEBUG 2 22 May 23:23:42 23:27:11 19° 271° (W) 23:30:33 437.445
QB50P2 22 May 23:25:38 23:28:10 16° 89° (E) 23:30:51 145.880/145.840
SPROUT 22 May 23:29:19 23:32:14 18° 63° (ENE) 23:35:16 437.525
CUSAT 1 22 May 23:35:30 23:41:36 24° 55° (NE) 23:47:07 437.405
ESTCUBE 1 22 May 23:37:49 23:42:17 79° 75° (ENE) 23:46:48 437.505/2401.250
POPSAT HIP 1 22 May 23:38:41 23:41:53 21° 91° (E) 23:45:10 437.405
DUCHIFAT 1 22 May 23:44:32 23:47:54 23° 92° (E) 23:51:21 145.980
ZACube-1 22 May 23:47:08 23:50:08 16° 272° (W) 23:52:59 437.345
VELOX 1 22 May 23:54:20 23:58:33 42° 262° (W) 00:02:48 145.980
UKube-1 22 May 23:58:30 00:01:52 21° 268° (W) 00:05:10 .
DX 1 23 May 00:00:16 00:03:30 20° 269° (W) 00:06:39 434.975-435.025
ANTELSAT 23 May 00:05:18 00:09:47 81° 103° (ESE) 00:14:08 437.575/2403.000
CUBEBUG 1 23 May 00:06:19 00:10:37 61° 259° (W) 00:14:59 437.445
TISAT 1 23 May 00:10:27 00:14:15 34° 68° (ENE) 00:18:08 437.305
DANDE 23 May 00:13:27 00:20:58 35° 62° (ENE) 00:27:36 436.750
HUMSAT D 23 May 00:21:15 00:23:36 14° 272° (W) 00:25:45 437.325/437.525
POLYITAN 1 23 May 00:21:52 00:26:08 58° 100° (E) 00:30:22 437.675
QB50P1 23 May 00:22:35 00:26:51 58° 100° (E) 00:31:04 145.935-145.965
ITUPSAT 1 23 May 00:24:43 00:25:59 11° 56° (NE) 00:27:30 437.325
AISAT 23 May 00:25:14 00:28:42 22° 268° (W) 00:32:07 437.250
BUGSAT 1 23 May 00:28:55 00:33:03 46° 99° (E) 00:37:11 437.445
BEESAT 23 May 00:34:21 00:36:40 14° 58° (ENE) 00:39:11 436.000
TIGRISAT 23 May 00:40:36 00:44:55 47° 289° (WNW) 00:49:05 435.000
SWISSCUBE 23 May 00:41:18 00:44:16 17° 60° (ENE) 00:47:24 437.505
NANOSAT C BR1 23 May 00:55:48 01:00:04 65° 287° (WNW) 01:04:17 145.865
UNISAT 6 23 May 00:59:11 01:03:09 31° 293° (WNW) 01:06:58 437.425
QB50P2 23 May 01:00:15 01:04:29 56° 288° (WNW) 01:08:40 145.880/145.840
SPROUT 23 May 01:03:45 01:07:59 53° 261° (W) 01:12:15 437.525
GONETS M04 23 May 01:08:49 01:17:36 65° 76° (ENE) 01:26:17
POPSAT HIP 1 23 May 01:13:54 01:17:59 42° 290° (WNW) 01:22:01 437.405
CUSAT 1 23 May 01:17:35 01:25:34 85° 261° (W) 01:32:00 437.405
ESTCUBE 1 23 May 01:17:59 01:19:50 12° 274° (W) 01:21:26 437.505/2401.250
DUCHIFAT 1 23 May 01:19:53 01:23:52 38° 291° (WNW) 01:27:48 145.980
O/OREOS (USA 219) 23 May 01:29:38 01:32:39 18° 47° (NE) 01:35:46 437.305
PCSat 23 May 01:39:48 01:43:36 20° 108° (ESE) 01:47:34 145.827
ANTELSAT 23 May 01:43:45 01:45:59 13° 301° (WNW) 01:48:00 437.575/2403.000
TISAT 1 23 May 01:46:32 01:50:06 25° 266° (W) 01:53:39 437.305
KKS-1 23 May 01:54:19 01:56:50 15° 60° (ENE) 01:59:29 437.445
Cosmos 2499 23 May 01:56:05 02:01:35 24° 62° (ENE) 02:07:12 435.465 / 435.565
DANDE 23 May 01:56:34 02:04:50 62° 266° (W) 02:11:41 436.750
ITUPSAT 1 23 May 01:58:23 02:03:08 74° 73° (ENE) 02:07:54 437.325
POLYITAN 1 23 May 01:58:49 02:01:40 17° 298° (WNW) 02:04:21 437.675
QB50P1 23 May 01:59:30 02:02:19 17° 298° (WNW) 02:05:00 145.935-145.965
BUGSAT 1 23 May 02:05:03 02:08:14 20° 296° (WNW) 02:11:20 437.445
BEESAT 23 May 02:09:08 02:13:54 87° 252° (WSW) 02:18:43 436.000
ISS 23 May 02:11:01 02:14:05 40° 145° (SE) 02:17:11 145.825
SWISSCUBE 23 May 02:16:56 02:21:40 69° 258° (WSW) 02:26:26 437.505
Oscar 19 23 May 02:23:39 02:28:28 39° 97° (E) 02:33:17 437.125/150
ITAMSAT 1 23 May 02:28:51 02:31:20 14° 86° (E) 02:34:05 435.822/435.867
BEESAT 3 23 May 02:36:51 02:39:17 15° 31° (NNE) 02:41:47 437.485
Gurwin Techsat 1B 23 May 02:38:40 02:41:53 16° 87° (E) 02:45:18 435.225
CUSAT 1 23 May 03:02:00 03:06:58 18° 282° (WNW) 03:11:07 437.405
GONETS M04 23 May 03:06:26 03:13:56 32° 277° (W) 03:21:10
STARS 23 May 03:08:00 03:12:14 46° 70° (ENE) 03:16:32 437.465
O/OREOS (USA 219) 23 May 03:08:08 03:12:35 67° 249° (WSW) 03:17:01 437.305
BEESAT 2 23 May 03:18:46 03:22:09 24° 38° (NE) 03:25:33 435.950
PCSat 23 May 03:21:08 03:26:32 70° 305° (NW) 03:31:59 145.827
KKS-1 23 May 03:28:29 03:32:58 72° 258° (WSW) 03:37:28 437.445
AO-7 23 May 03:35:29 03:38:28 13° 81° (E) 03:42:06 29.400- 29.500
ITUPSAT 1 23 May 03:38:59 03:41:38 14° 273° (W) 03:44:05 437.325
DANDE 23 May 03:42:40 03:46:21 13° 286° (WNW) 03:49:20 436.750
ISS 23 May 03:47:20 03:50:30 47° 344° (NNW) 03:53:41 145.825
Cosmos 2499 23 May 03:48:28 03:55:34 71° 265° (W) 04:02:35 435.465 / 435.565
BEESAT 23 May 03:51:14 03:52:35 11° 275° (W) 03:53:39 436.000
SO-50 23 May 04:00:40 04:03:19 15° 110° (ESE) 04:06:11 436.795
Oscar 19 23 May 04:03:11 04:07:45 32° 295° (WNW) 04:12:14 437.125/150
ITAMSAT 1 23 May 04:06:23 04:11:38 86° 289° (WNW) 04:16:53 435.822/435.867
HORYU 2 23 May 04:09:30 04:12:35 19° 91° (E) 04:15:46 437.375
BEESAT 3 23 May 04:13:52 04:17:59 76° 52° (NE) 04:22:02 437.485
AIST 2 23 May 04:16:51 04:20:31 27° 40° (NE) 04:24:09 435.215
Gurwin Techsat 1B 23 May 04:17:12 04:22:33 75° 287° (WNW) 04:27:51 435.225
MOZHAYETS 4 23 May 04:24:33 04:28:45 38° 69° (ENE) 04:33:00
JAS-2 23 May 04:36:55 04:41:34 32° 94° (E) 04:46:14 435.910
STARS 23 May 04:45:36 04:48:58 20° 269° (W) 04:52:14 437.465
BEESAT 2 23 May 04:56:30 05:00:31 51° 239° (WSW) 05:04:28 435.950
Cosmos 2491 23 May 04:58:42 05:00:57 11° 43° (NE) 05:03:45 435.465 / 435.565
PCSat 23 May 05:07:17 05:11:00 18° 328° (NNW) 05:14:39 145.827
VERMONT LUNAR 23 May 05:19:30 05:21:52 19° 166° (SSE) 05:24:16 437.305
ISS 23 May 05:24:19 05:27:21 34° 4° (N) 05:30:23 145.825
AO-7 23 May 05:24:58 05:33:15 63° 103° (ESE) 05:41:34 29.400- 29.500
SO-50 23 May 05:38:32 05:43:16 81° 309° (NW) 05:48:10 436.795
Cosmos 2499 23 May 05:44:48 05:47:27 12° 284° (WNW) 05:49:37 435.465 / 435.565
HORYU 2 23 May 05:45:14 05:49:34 50° 289° (WNW) 05:53:49 437.375
ITAMSAT 1 23 May 05:47:33 05:50:27 15° 303° (WNW) 05:53:10 435.822/435.867
CUBESAT XI-V 23 May 05:51:00 05:54:47 26° 66° (ENE) 05:58:40 437.345
BEESAT 3 23 May 05:53:31 05:55:27 13° 249° (WSW) 05:57:11 437.485
AIST 2 23 May 05:55:12 05:59:16 45° 240° (WSW) 06:03:15 435.215
Gurwin Techsat 1B 23 May 05:59:13 06:01:43 13° 305° (NW) 06:03:59 435.225
PRISM 23 May 05:59:52 06:02:13 15° 62° (ENE) 06:04:43 437.425
MOZHAYETS 4 23 May 06:02:14 06:06:06 26° 267° (W) 06:09:54
